Location: Pian di Sc�
(43.6333°N, 11.5500°E)
Time: 10:04:42
(UTC+00:00)

SJ 16-02 - Pass Details

Date: 07 August 2020
Orbit: 607 x 616 km, 75.0° (Epoch: 19 September)

Event Time Altitude Azimuth Distance (km) Brightness Sun altitude
Exits shadow 03:02:09 10° 271° (W) 1,953 3.4 -11.4°
Maximum altitude 03:04:33 15° 304° (NW) 1,684 3.4 -11.1°
Drops below altitude 10° 03:07:04 10° 339° (NNW) 1,980 4.1 -10.7°
Sets 03:10:15 0° 3° (N) 2,888 5.4 -10.2°
